Terug naar catalogus

DMSP 5D-2 F14 DEB

ActiefSSO
NORAD 63154·DEBRIS·🇺🇸 United States

Gelanceerd Apr 4, 1997 vanaf Vandenberg Space Force Base

Loading…

Volgende Passages (komende 24 uur)

TLE

VersSource: Space-Track

Epoch: Sep 13, 2026, 14:20 UTC

1 63154U 97012U   26256.59734735  .00001914  00000-0  79305-3 0  9994
2 63154  98.7657 312.3317 0036739 154.3528 205.9484 14.27398792 81754

Volg DMSP 5D-2 F14 DEB in realtime met AllMySat

Download on the App Store